When you browse on this site, cookies collect data to enhance your experience and personalize the content and advertising you see.
Visit our Privacy Policy to learn more. By continuing to use the site, you agree to this use of cookies and data.
EN

Hourly Weather Staroe Ilmovo

Today, 18 September, Friday

Time Temperature Precipitation Wind Pressure Humidity
00:00 +10°C° 0 mm 6 mps 741 mmHg 62%
01:00 +10°C° 0 mm 6 mps 741 mmHg 60%
02:00 +11°C° 0 mm 7 mps 740 mmHg 57%
03:00 +11°C° 0 mm 7 mps 739 mmHg 52%
04:00 +11°C° 0 mm 7 mps 738 mmHg 51%
05:00 +11°C° 0 mm 7 mps 738 mmHg 49%
06:00 +11°C° 0 mm 7 mps 737 mmHg 48%
07:00 +12°C° 0 mm 7 mps 737 mmHg 46%
08:00 +14°C° 0 mm 7 mps 737 mmHg 45%
09:00 +15°C° 0 mm 8 mps 737 mmHg 44%
10:00 +16°C° 0 mm 8 mps 738 mmHg 42%
11:00 +17°C° 0 mm 8 mps 738 mmHg 41%
12:00 +18°C° 0 mm 8 mps 738 mmHg 40%
13:00 +18°C° 0 mm 7 mps 738 mmHg 44%
14:00 +17°C° 0 mm 7 mps 738 mmHg 48%
15:00 +17°C° 0 mm 6 mps 737 mmHg 53%
16:00 +15°C° 0 mm 5 mps 737 mmHg 59%
17:00 +13°C° 0 mm 4 mps 737 mmHg 66%
18:00 +11°C° 0 mm 3 mps 737 mmHg 73%
19:00 +12°C° 0 mm 2 mps 737 mmHg 75%
20:00 +10°C° 0 mm 2 mps 737 mmHg 77%
21:00 +10°C° 0 mm 2 mps 737 mmHg 79%
22:00 +10°C° 0.3 mm 2 mps 737 mmHg 82%
23:00 +11°C° 0.3 mm 1 mps 736 mmHg 85%

Tomorrow, 19 September, Saturday

Time Temperature Precipitation Wind Pressure Humidity
00:00 +11°C° 0.3 mm 1 mps 736 mmHg 88%
01:00 +11°C° 0.1 mm 1 mps 736 mmHg 88%
02:00 +11°C° 0.1 mm 1 mps 735 mmHg 89%
03:00 +11°C° 0.1 mm 1 mps 735 mmHg 90%
04:00 +10°C° 0 mm 1 mps 735 mmHg 91%
05:00 +10°C° 0 mm 1 mps 734 mmHg 91%
06:00 +10°C° 0 mm 1 mps 734 mmHg 91%
07:00 +9°C° 0 mm 2 mps 734 mmHg 86%
08:00 +10°C° 0 mm 3 mps 734 mmHg 81%
09:00 +10°C° 0 mm 3 mps 734 mmHg 76%
10:00 +11°C° 0 mm 4 mps 733 mmHg 70%
11:00 +13°C° 0 mm 5 mps 733 mmHg 64%
12:00 +14°C° 0 mm 5 mps 733 mmHg 59%
13:00 +13°C° 0.1 mm 6 mps 733 mmHg 62%
14:00 +13°C° 0.1 mm 6 mps 734 mmHg 64%
15:00 +11°C° 0.1 mm 7 mps 734 mmHg 67%
16:00 +10°C° 0.2 mm 7 mps 734 mmHg 73%
17:00 +8°C° 0.2 mm 7 mps 734 mmHg 79%
18:00 +7°C° 0.2 mm 6 mps 735 mmHg 85%
19:00 +5°C° 0.1 mm 6 mps 735 mmHg 86%
20:00 +5°C° 0.1 mm 6 mps 735 mmHg 87%
21:00 +5°C° 0.1 mm 5 mps 735 mmHg 88%
22:00 +5°C° 0 mm 5 mps 735 mmHg 89%
23:00 +5°C° 0 mm 4 mps 735 mmHg 91%

Day after tomorrow, 20 September, Sunday

Time Temperature Precipitation Wind Pressure Humidity
00:00 +4°C° 0 mm 4 mps 734 mmHg 92%
01:00 +4°C° 0 mm 4 mps 734 mmHg 92%
02:00 +5°C° 0 mm 4 mps 734 mmHg 93%
03:00 +5°C° 0 mm 5 mps 734 mmHg 93%
04:00 +3°C° 0 mm 5 mps 734 mmHg 93%
05:00 +3°C° 0 mm 5 mps 734 mmHg 92%
06:00 +3°C° 0 mm 5 mps 734 mmHg 92%
07:00 +3°C° 1.2 mm 5 mps 734 mmHg 92%
08:00 +5°C° 1.2 mm 5 mps 734 mmHg 91%
09:00 +5°C° 1.2 mm 5 mps 734 mmHg 91%
10:00 +5°C° 0.6 mm 5 mps 735 mmHg 89%
11:00 +5°C° 0.6 mm 6 mps 735 mmHg 86%
12:00 +5°C° 0.6 mm 6 mps 735 mmHg 84%
13:00 +5°C° 0.3 mm 6 mps 736 mmHg 80%
14:00 +6°C° 0.3 mm 7 mps 736 mmHg 76%
15:00 +6°C° 0.3 mm 7 mps 737 mmHg 71%
16:00 +5°C° 0.1 mm 7 mps 738 mmHg 75%
17:00 +5°C° 0.1 mm 6 mps 738 mmHg 78%
18:00 +4°C° 0.1 mm 6 mps 739 mmHg 82%
19:00 +3°C° 0 mm 6 mps 739 mmHg 83%
20:00 +3°C° 0 mm 5 mps 739 mmHg 85%
21:00 +2°C° 0 mm 5 mps 740 mmHg 86%
22:00 +2°C° 0 mm 5 mps 740 mmHg 88%
23:00 +2°C° 0 mm 5 mps 740 mmHg 89%

21 September, Monday

Time Temperature Precipitation Wind Pressure Humidity
00:00 +2°C° 0 mm 5 mps 740 mmHg 90%
01:00 +2°C° 0 mm 5 mps 740 mmHg 88%
02:00 +2°C° 0 mm 5 mps 740 mmHg 87%
03:00 +2°C° 0 mm 5 mps 740 mmHg 85%
04:00 +2°C° 0 mm 5 mps 740 mmHg 85%
05:00 +2°C° 0 mm 5 mps 740 mmHg 86%
06:00 +1°C° 0 mm 5 mps 740 mmHg 86%
07:00 +3°C° 0 mm 6 mps 741 mmHg 82%
08:00 +4°C° 0 mm 6 mps 741 mmHg 78%
09:00 +5°C° 0 mm 7 mps 741 mmHg 74%
10:00 +5°C° 0 mm 6 mps 741 mmHg 73%
11:00 +7°C° 0 mm 6 mps 740 mmHg 73%
12:00 +7°C° 0 mm 6 mps 740 mmHg 73%
13:00 +6°C° 0.3 mm 7 mps 740 mmHg 77%
14:00 +6°C° 0.3 mm 7 mps 740 mmHg 82%
15:00 +6°C° 0.3 mm 7 mps 739 mmHg 86%
16:00 +6°C° 0.4 mm 7 mps 739 mmHg 87%
17:00 +6°C° 0.4 mm 7 mps 739 mmHg 88%
18:00 +6°C° 0.4 mm 7 mps 738 mmHg 88%
19:00 +6°C° 0.3 mm 8 mps 738 mmHg 88%
20:00 +7°C° 0.3 mm 8 mps 738 mmHg 87%
21:00 +7°C° 0.3 mm 8 mps 739 mmHg 87%
22:00 +6°C° 0 mm 7 mps 739 mmHg 87%
23:00 +5°C° 0 mm 7 mps 739 mmHg 88%

22 September, Tuesday

Time Temperature Precipitation Wind Pressure Humidity
00:00 +5°C° 0 mm 6 mps 740 mmHg 88%
01:00 +4°C° 0 mm 6 mps 740 mmHg 90%
02:00 +5°C° 0 mm 5 mps 741 mmHg 91%
03:00 +3°C° 0 mm 5 mps 742 mmHg 92%
04:00 +3°C° 0 mm 5 mps 742 mmHg 92%
05:00 +4°C° 0 mm 4 mps 743 mmHg 93%
06:00 +3°C° 0 mm 4 mps 744 mmHg 94%
07:00 +4°C° 0 mm 4 mps 744 mmHg 88%
08:00 +5°C° 0 mm 4 mps 745 mmHg 81%
09:00 +7°C° 0 mm 4 mps 745 mmHg 75%
10:00 +8°C° 0 mm 4 mps 746 mmHg 70%
11:00 +10°C° 0 mm 4 mps 746 mmHg 65%
12:00 +11°C° 0 mm 4 mps 746 mmHg 59%
13:00 +11°C° 0 mm 4 mps 746 mmHg 56%
14:00 +12°C° 0 mm 4 mps 746 mmHg 53%
15:00 +12°C° 0 mm 4 mps 746 mmHg 50%
16:00 +11°C° 0 mm 3 mps 746 mmHg 56%
17:00 +10°C° 0 mm 3 mps 746 mmHg 61%
18:00 +9°C° 0 mm 3 mps 746 mmHg 67%
19:00 +9°C° 0 mm 3 mps 746 mmHg 69%
20:00 +9°C° 0 mm 3 mps 746 mmHg 71%
21:00 +8°C° 0 mm 4 mps 746 mmHg 73%
22:00 +8°C° 0 mm 4 mps 746 mmHg 76%
23:00 +8°C° 0 mm 4 mps 746 mmHg 79%

23 September, Wednesday

Time Temperature Precipitation Wind Pressure Humidity
00:00 +8°C° 0 mm 5 mps 746 mmHg 83%
01:00 +8°C° 0 mm 5 mps 746 mmHg 86%
02:00 +8°C° 0 mm 5 mps 746 mmHg 89%
03:00 +9°C° 0 mm 5 mps 746 mmHg 92%
04:00 +8°C° 0 mm 5 mps 746 mmHg 93%
05:00 +8°C° 0 mm 5 mps 746 mmHg 94%
06:00 +8°C° 0 mm 5 mps 747 mmHg 94%
07:00 +9°C° 0 mm 5 mps 747 mmHg 89%
08:00 +11°C° 0 mm 6 mps 747 mmHg 83%
09:00 +13°C° 0 mm 6 mps 747 mmHg 78%
10:00 +15°C° 0 mm 6 mps 747 mmHg 72%
11:00 +16°C° 0 mm 6 mps 747 mmHg 66%
12:00 +19°C° 0 mm 6 mps 747 mmHg 60%
13:00 +19°C° 0 mm 6 mps 747 mmHg 58%
14:00 +20°C° 0 mm 6 mps 747 mmHg 57%
15:00 +20°C° 0 mm 6 mps 747 mmHg 56%
16:00 +17°C° 0 mm 5 mps 747 mmHg 61%
17:00 +17°C° 0 mm 4 mps 747 mmHg 67%
18:00 +15°C° 0 mm 4 mps 747 mmHg 72%
19:00 +14°C° 0 mm 4 mps 747 mmHg 74%
20:00 +14°C° 0 mm 4 mps 747 mmHg 75%
21:00 +13°C° 0 mm 4 mps 747 mmHg 77%
22:00 +13°C° 0 mm 4 mps 748 mmHg 77%
23:00 +12°C° 0 mm 4 mps 748 mmHg 78%
Show more